Dauntless Aviation
Greetings, Guest! To participate, [sign up for a free account] or [log in]
Airports North America Canada
CYLW
YLW

Kelowna International Airport

Kelowna, BC, CANADA

Airport Info
Edit

Location

Latitude / Longitude: 49°53'0"N / 119°29'35"W
  49°53.016'N / 119°29.598'W
  49.8836 / -119.4933

Nearby radio navigation aids

EX RUTLAND NDB. 335.5° 1.0nm from EX to field.
LW KELOWNA NDB. 147.1° 6.5nm from LW to field.

Runway Information

Runway 16 /34

Dimensions: 7300 x 200 ft.
Surface: ASP
 
Runway 16
Runway 34
Latitude: 49.966 49.946278
Longitude: -119.378961 -119.376461
Elevation: 1409 ft. 1409 ft.
Runway true heading: 166.6 346.6
 

Instrument Procedures

  Aerodrome Chart
  Parking Areas
  CAC: Aerodrome Chart
  CAC: Parking Areas - Apron I
  CAC: Parking Areas - Apron III

IAPs (Instrument Approach Procedures)

  CFS: KELOWNA VFR Terminal Procedures Chart
  CFS: KELOWNA VFR Terminal Procedures Chart - Night Circuit Procedure
  CFS: Aerodrome Information
  CFS: Aerodrome Information (Part 2)
  DATBO ONE ARR (DATBO.DATBO 1)
  LENUR ONE ARR (LENUR.LENUR 1)
  RNAV (GNSS) A
  NDB B (GNSS)
  ILS/DME 1 Rwy 16
  Night Circuit Procedures
  KELOWNA FIVE DEP (YLW 5.)

Departure Procedures

  Departure Procedure
Satellite photo at:
Airport distance calculator
From:
Weather Reports

METAR

CYLW

CYLW 020200Z AUTO 22016G23KT 9SM CLR 15/01 A2997 RMK SLP155 DENSITY ALT 1600FT
CWUS
20.0nm S
CWUS 020200Z AUTO 04002KT 13/01 RMK AO1 SLP163 T01340007 53009
CWJV
21.6nm N
CWJV 020200Z AUTO 27004KT 15/02 RMK AO1 SLP146 T01460022 53003
CYYF
25.3nm S
CYYF 020200Z 05007KT 280V060 15SM FEW075 BKN180 15/02 A2998 RMK AC2CI4 SLP160 DENSITY ALT 1300FT

TAF

CYLW
TAF AMD CYLW 020114Z 0201/0213 22020G30KT P6SM SCT080 FM020300 28012KT P6SM SCT080 TEMPO 0203/0207 P6SM -SHRA BKN060 BECMG 0204/0206 VRB03KT RMK FCST BASED ON AUTO OBS. NXT FCST BY 020700Z
CYYF
25.3nm S
TAF CYYF 020038Z 0201/0213 18008KT P6SM SCT090 FM020400 28010KT P6SM SCT080 TEMPO 0204/0208 P6SM -SHRA BKN060 RMK NXT FCST BY 020700Z
Safelog

 

Dauntless Aviation

© 2007-2014 Dauntless Aviation, all rights reserved
Information provided via PilotNav comes from a variety of official and unofficial data sources. As errors are possible, do not use PilotNav for primary flight planning purposes. Verify any information that you receive via PilotNav with current and canonical charts and other official documents. The material in this database is subject to database copyrights held by Dauntless Aviation and may not be copied without the express permission of Dauntless Aviation - licenses for use of part of all of this data are available for purchase; enquire via the Dauntless Aviation helpdesk. A number of mechanisms and markers exist in the database to protect against and identify infringement / copyright. Automated queries against this website are stictly prohibited, and all activity is logged and analyzed.